Other Public Products
Issued by NWS Grand Forks, ND

Home | Current Version | Previous Version | Graphics & Text | Print | Product List | Glossary On
Versions: 1 2 3 4 5 6 7 8 9 10 11 12 13 14 15 16 17 18 19 20 21 22 23 24 25 26 27 28 29 30 31 32 33 34 35 36 37 38 39 40 41 42 43 44 45 46 47 48 49 50
000
FPUS83 KFGF 211531
OPUFGF
PRAIRIE TO PINES WEATHER ROUNDUP
NATIONAL WEATHER SERVICE EASTERN NORTH DAKOTA/GRAND FORKS ND
1000 AM CDT TUE OCT 21 2014

 **SATELLITE DATA USED TO AUGMENT SKY COVER AT AUTOMATED STATIONS**
 *****  WEATHER ACROSS EASTERN NORTH DAKOTA  *****

CITY           SKY/WX    TMP DP  RH WIND       PRES   REMARKS
GRAND FORKS    SUNNY     45  40  82 SE18      30.00F
GRAND FORKS AF SUNNY     44  43  95 S14G23    29.99F
GRAND CITY NWS   N/A     46 N/A N/A S20         N/A
BUXTON           N/A     46  43  89 SE14        N/A
DEVILS LAKE    SUNNY     52  37  58 SE16      29.89S
FARGO          SUNNY     49  40  71 SE15G26   30.02S
WAHPETON ARPT  SUNNY     48  37  66 SE17G23   30.04S
$$

 *****  WEATHER ACROSS CENTRAL AND WESTERN NORTH DAKOTA  *****

CITY           SKY/WX    TMP DP  RH WIND       PRES   REMARKS
JAMESTOWN      SUNNY     52  39  61 SE17      29.90F
BISMARCK       SUNNY     55  39  54 SE9       29.83S
MINOT          SUNNY     52  38  58 SE7       29.79F
MINOT AFB      SUNNY     46  41  83 SE9       29.78F
GARRISON         N/A     51  39  63 SE8       29.79F
WILLISTON      SUNNY     51  39  63 CALM      29.74S
DICKINSON      SUNNY     47  39  74 SE12      29.74F
HETTINGER      SUNNY     48  40  73 SE6       29.78F
$$

 *****  OTHER OBSERVATIONS NORTHEAST NORTH DAKOTA  *****

CITY           SKY/WX    TMP DP  RH WIND       PRES   REMARKS
WALHALLA         N/A     43  43 100 S15       29.96F
LANGDON        FAIR      50  39  66 S16G22    29.92S
CAVALIER       FAIR      45  39  81 S15G23    29.98F
GRAFTON        FAIR      45  41  87 S17       29.99F
CANDO          FAIR      50  41  71 SE13      29.90S
FORT TOTTEN    NOT AVBL
ROLLA          FAIR      46  41  81 S9        29.89F
RUGBY          FAIR      54  39  58 SE14G24   29.84F
 ***** THE ABOVE OBSERVATIONS ARE NON NWS ARE NOT QUALITY
        CONTROLLED AND MAY MIS-REPORT RAIN FOR SNOW...
$$

 *****  OTHER OBSERVATIONS SOUTHEAST NORTH DAKOTA *****

CITY           SKY/WX    TMP DP  RH WIND       PRES   REMARKS
COOPERSTOWN    NOT AVBL
VALLEY CITY    FAIR      48  41  76 SE13G20   29.95F
OAKES            N/A     54  45  71 SE12      29.93F
GWINNER        SUNNY     50  39  66 SE17      29.97F
SHEYENNE NWR     N/A     46  40  79 SE13      29.95
BUFFALO          N/A     47  38  69 SE14        N/A
WYNDMERE         N/A     46  39  76 SE14        N/A
 ***** THE ABOVE OBSERVATIONS ARE NON NWS ARE NOT QUALITY
       CONTROLLED AND MAY MIS-REPORT RAIN FOR SNOW...
$$

  *****  WEATHER ACROSS NORTHERN MINNESOTA  *****

CITY           SKY/WX    TMP DP  RH WIND       PRES   REMARKS
FLAG ISLAND    SUNNY     45  37  76 SE17G25   30.11S
WARROAD        SUNNY     45  39  81 SE14      30.11R
ROSEAU         SUNNY     46  39  76 SE14      30.08F
HALLOCK        SUNNY     48  41  76 SE17      30.01F
THF RVR FALLS  SUNNY     46  39  76 SE15      30.05F
HALSTAD          N/A     51  41  67 S20         N/A
FOSSTON        SUNNY     48  41  76 SE12G17   30.08S
BAUDETTE       SUNNY     42  37  82 SE12G18   30.13S
WASKISH        SUNNY     43  43 100 CALM      30.14R
CROOKSTON      SUNNY     48  41  76 S21       30.03F
$$
  *****  WEATHER ACROSS CENTRAL AND WEST MINNESOTA  *****

CITY           SKY/WX    TMP DP  RH WIND       PRES   REMARKS
BEMIDJI        SUNNY     44  39  84 SE13G20   30.12S
PARK RAPIDS    SUNNY     43  38  82 SE15      30.13S
WADENA         SUNNY     45  37  76 SE14      30.12S
DETROIT LAKES  SUNNY     45  39  81 SE15      30.08S
MOORHEAD       SUNNY     52  45  76 S18G25    30.03F
FERGUS FALLS   SUNNY     50  37  62 SE18      30.07F
ELBOW LAKE     FAIR      49  40  71 SE16      30.07F
MORRIS MN      SUNNY     48  43  81 SE17G23   30.07F
STAPLES        SUNNY     45  37  76 SE9       30.14S
WHEATON        SUNNY     46  39  76 SE20      30.05F
$$
  *****  WEATHER ELSEWHERE ACROSS MINNESOTA  *****

CITY           SKY/WX    TMP DP  RH WIND       PRES   REMARKS
DULUTH         CLOUDY    42  33  70 SE10      30.23R
INTRNTL FALLS  CLOUDY    42  35  76 SE8       30.19R
ELY            CLOUDY    37  34  87 SE10      30.24S
CLOQUET        CLOUDY    43  34  70 E8        30.24R
BRAINERD       SUNNY     44  39  82 SE10      30.18R
HIBBING        CLOUDY    42  35  76 SE9       30.22R
ALEXANDRIA     SUNNY     45  40  82 SE14      30.13S
SAINT CLOUD    SUNNY     49  39  68 SE8       30.18S
MINNEAPOLIS    SUNNY     46  38  73 E14       30.21S
$$

  *****  WEATHER ACROSS SOUTH DAKOTA  *****

CITY           SKY/WX    TMP DP  RH WIND       PRES   REMARKS
SIOUX FALLS    SUNNY     54  41  61 SE8       30.07F
BROOKINGS      NOT AVBL
WATERTOWN      SUNNY     52  39  61 SE15G21   30.01F
HURON          SUNNY     56  38  50 S14G22    29.97S
SISSETON         N/A     44  39  82 S13       30.02F
ABERDEEN       SUNNY     59  39  47 S16       29.93F
MITCHELL       SUNNY     55  40  56 SE16      30.00F
PIERRE         SUNNY     56  42  59 SE13      29.87R
MOBRIDGE       SUNNY     59  43  55 S13       29.82R
RAPID CITY     SUNNY     56  42  59 E5        29.84S
$$

  *****  SOME WEATHER IN NEARBY STATES *****

CITY           SKY/WX    TMP DP  RH WIND       PRES   REMARKS
GLASGOW MT     MOSUNNY   50  40  68 E15       29.66S
GREAT FALLS MT LGT RAIN  50  38  63 N3        29.66R
CHEYENNE WY    MOSUNNY   60  37  42 W8        30.05S
SCOTTSBLUFF NE MOSUNNY   53  44  71 CALM      29.98R
OMAHA NE       SUNNY     50  43  77 CALM      30.14S
DES MOINES IA  SUNNY     53  43  68 E5        30.16R
DAVENPORT IA   SUNNY     50  41  71 NE12      30.20R
CHICAGO IL     PTSUNNY   49  40  71 N13       30.15R
EAU CLAIRE WI  CLOUDY    43  36  76 SE7       30.23R
LA CROSSE WI   SUNNY     47  37  68 E7        30.23R
$$

  *****  SOME NATIONAL WEATHER *****

CITY           SKY/WX    TMP DP  RH WIND       PRES   REMARKS
LA GUARDIA NY  PTSUNNY   65  48  54 NE7       29.88F
RALEIGH NC     MOSUNNY   66  51  58 CALM      29.93F
ATLANTA GA     SUNNY     65  52  62 NW8       30.04S
NEW ORLEANS LA MOSUNNY   73  55  53 NE10      30.06R
OKLAHOMA CITY  MOSUNNY   67  60  78 S6        30.10S
ALBUQUERQUE NM PTSUNNY   53  47  79 S7        30.17R
SALT LAKE CITY MOSUNNY   65  39  38 S15G25    29.89S
LOS ANGELES CA MOSUNNY   65  61  87 VRB3      29.92R
BOISE ID       LGT RAIN  48  44  86 S5        29.95R
SEATTLE WA     MOCLDY    54  50  87 S10       29.89R
$$

*** WEATHER ACROSS MANITOBA...SASKATCHEWAN AND ONTARIO ***
                ***ONTARIO***

CITY           SKY/WX    TMP DP  RH WIND       PRES   REMARKS
GERALDTON      MOSUNNY   30  28  93 SE7       30.31R WCI  23
THUNDER BAY    PTSUNNY   36  32  87 VRB2      30.32R
SIOUX LOOKOUT  CLOUDY    36  32  87 S10       30.21S
TORONTO        LGT RAIN  52  48  87 N14       29.87R
BIG TROUT LK   CLOUDY    36  32  87 S17G23    30.12F
PICKLE LAKE    CLOUDY    34  30  86 S13G20    30.22R WCI  25
DRYDEN         CLOUDY    39  34  81 S14G21    30.19S
KENORA         MOSUNNY   43  36  75 S12       30.14
$$
                *** MANITOBA***

CITY           SKY/WX    TMP DP  RH WIND       PRES   REMARKS
BRANDON        SUNNY     52  41  66 SE12      29.87F
DAUPHIN        SUNNY     61  39  44 VRB3      29.79F
ISLAND LAKE    MOSUNNY   41  36  81 S17G25    29.95F
PILOT MOUND    NOT AVBL
THE PAS        MOSUNNY   45  41  87 S15       29.64F
THOMPSON       PTSUNNY   43  41  93 S6        29.70F
WINNIPEG       SUNNY     45  37  76 S16G22    29.99
LYNN LAKE      CLOUDY    41  39  93 S10       29.59F
CHURCHILL      CLOUDY    36  34  93 S9        29.72F
GILLAM         MOSUNNY   41  36  81 S15G22    29.79F
$$
                ***SASKATCHEWAN***

CITY           SKY/WX    TMP DP  RH WIND       PRES   REMARKS
ESTEVAN        MOSUNNY   45  37  76 E9        29.75S
KINDERSLEY     MOCLDY    48  36  61 S5        29.60S
LLOYDMINSTER   CLOUDY    45  36  70 W9G22     29.53R
PRINCE ALBERT  PTCLDY    39  39 100 VRB2      29.56
REGINA         SUNNY     45  41  87 SE13      29.69S


USA.gov is the U.S. government's official web portal to all federal, state and local government web resources and services.